GW5810 Weather Reports


time (UTC)temp
C
wind
direction
speed
KPH
gust
KPH
rain 1hr
cm
rain 24hr
cm
rain mn
cm
humidity
%
barometer
mb
20260508023827 6 127 0.0 4.8 0.00 0.00 0.00 99 1016.7
20260508023326 5 0 0.0 4.8 0.00 0.00 0.00 99 1016.8
20260508023202 5 133 0.0 4.8 0.00 0.00 0.00 99 1016.8
20260508022326 6 0 0.0 6.4 0.00 0.00 0.00 99 1016.9
20260508021826 6 0 0.0 6.4 0.00 0.00 0.00 99 1016.9
20260508021328 6 0 0.0 3.2 0.00 0.00 0.00 99 1016.9
20260508020828 6 154 0.0 4.8 0.00 0.00 0.00 99 1016.8
20260508020642 6 0 0.0 4.8 0.00 0.00 0.00 98 1016.7
20260508015828 6 127 1.6 4.8 0.00 0.00 0.00 98 1016.8
20260508015325 6 165 1.6 4.8 0.00 0.00 0.00 98 1016.7
20260508015137 6 0 1.6 6.4 0.00 0.00 0.00 98 1016.7
20260508014325 6 164 1.6 6.4 0.00 0.00 0.00 98 1016.5
20260508013825 6 192 1.6 6.4 0.00 0.00 0.00 98 1016.5
20260508013327 6 193 1.6 6.4 0.00 0.00 0.00 98 1016.7
20260508012825 6 193 1.6 4.8 0.00 0.00 0.00 98 1016.7
20260508012323 6 0 1.6 4.8 0.00 0.00 0.00 98 1016.7
20260508011825 6 210 1.6 6.4 0.00 0.00 0.00 98 1016.9
20260508011326 6 0 1.6 6.4 0.00 0.00 0.00 98 1016.9
20260508010826 6 170 1.6 6.4 0.00 0.00 0.00 98 1016.9
20260508010321 6 230 0.0 4.8 0.00 0.00 0.00 97 1017.1
20260508005823 6 204 0.0 6.4 0.00 0.00 0.00 97 1017.0
20260508005326 6 0 0.0 6.4 0.00 0.00 0.00 97 1016.8
20260508004823 6 156 0.0 4.8 0.00 0.00 0.00 97 1016.8
20260508004322 6 0 1.6 8.0 0.00 0.00 0.00 97 1016.7
20260508003818 6 119 1.6 8.0 0.00 0.00 0.00 97 1016.6
20260508003642 6 125 1.6 6.4 0.00 0.00 0.00 97 1016.7
20260508002819 6 160 1.6 6.4 0.00 0.00 0.00 96 1016.8
20260508002318 6 187 0.0 4.8 0.00 0.00 0.00 96 1016.9
20260508001819 6 0 0.0 3.2 0.00 0.00 0.00 96 1017.1
20260508001321 6 0 0.0 4.8 0.00 0.00 0.00 96 1017.1
20260508000815 6 160 0.0 4.8 0.00 0.00 0.00 95 1017.0
20260508000314 6 103 0.0 4.8 0.00 0.00 0.00 95 1017.1
20260507235812 7 156 0.0 3.2 0.00 0.00 0.00 95 1017.4
20260507235626 7 0 0.0 4.8 0.00 0.00 0.00 95 1017.4
20260507234812 7 172 0.0 4.8 0.00 0.00 0.00 95 1017.3
20260507234624 7 178 1.6 6.4 0.00 0.00 0.00 94 1017.1
20260507234122 7 78 1.6 6.4 0.00 0.00 0.00 94 1017.0
20260507233625 7 130 1.6 6.4 0.00 0.00 0.00 94 1017.0
20260507232808 7 162 0.0 4.8 0.00 0.00 0.00 94 1017.3
20260507232308 7 0 0.0 4.8 0.00 0.00 0.00 94 1017.3
20260507231811 7 162 0.0 4.8 0.00 0.00 0.00 93 1017.4
20260507231309 7 0 0.0 4.8 0.00 0.00 0.00 93 1017.4
20260507230809 7 0 0.0 4.8 0.00 0.00 0.00 93 1017.5
20260507230309 7 0 0.0 6.4 0.00 0.00 0.00 93 1017.3
20260507225810 7 0 0.0 6.4 0.00 0.00 0.00 92 1017.4
20260507225308 7 155 0.0 4.8 0.00 0.00 0.00 92 1017.5
20260507224809 8 0 1.6 4.8 0.00 0.00 0.00 92 1017.5
20260507224308 8 207 1.6 4.8 0.00 0.00 0.00 91 1017.4
20260507223806 8 190 1.6 6.4 0.00 0.00 0.00 91 1017.3
20260507223306 8 168 1.6 6.4 0.00 0.00 0.00 91 1017.2
20260507222806 8 145 1.6 6.4 0.00 0.00 0.00 91 1017.2
20260507222306 8 168 1.6 6.4 0.00 0.00 0.00 91 1017.2
20260507221809 8 0 1.6 4.8 0.00 0.00 0.00 90 1017.3
20260507221306 8 169 1.6 6.4 0.00 0.00 0.00 90 1017.2
20260507220806 8 168 3.2 6.4 0.00 0.00 0.00 90 1017.2
20260507220308 8 153 3.2 8.0 0.00 0.00 0.00 90 1017.1
20260507215805 8 149 1.6 8.0 0.00 0.00 0.00 90 1017.2
20260507215307 8 137 1.6 8.0 0.00 0.00 0.00 90 1017.2
20260507214805 8 150 1.6 6.4 0.00 0.00 0.00 89 1017.3
20260507214304 8 166 1.6 6.4 0.00 0.00 0.00 89 1017.4
20260507213806 8 162 3.2 6.4 0.00 0.00 0.00 89 1017.4
20260507213307 8 203 3.2 6.4 0.00 0.00 0.00 88 1017.4
20260507212806 9 173 1.6 8.0 0.00 0.00 0.00 88 1017.4
20260507212307 9 165 3.2 8.0 0.00 0.00 0.00 87 1017.4
20260507211806 9 159 3.2 9.7 0.00 0.00 0.00 87 1017.4
20260507211624 9 191 3.2 9.7 0.00 0.00 0.00 86 1017.4
20260507210805 10 0 3.2 9.7 0.00 0.00 0.00 86 1017.3
20260507210642 10 151 3.2 12.9 0.00 0.00 0.00 85 1017.2
20260507205803 10 186 4.8 14.5 0.00 0.00 0.00 84 1017.0
20260507205620 10 166 4.8 14.5 0.00 0.00 0.00 84 1016.7
20260507204802 10 148 4.8 12.9 0.00 0.03 0.00 83 1016.7
20260507204301 10 164 3.2 9.7 0.00 0.05 0.00 83 1016.7
20260507203802 10 162 3.2 9.7 0.00 0.05 0.00 82 1016.7
20260507203302 10 175 3.2 9.7 0.00 0.08 0.00 82 1016.6
20260507202802 11 180 3.2 9.7 0.00 0.10 0.00 82 1016.5
20260507202306 11 196 3.2 11.3 0.00 0.10 0.00 81 1016.4
20260507201802 11 161 3.2 11.3 0.00 0.10 0.00 81 1016.3
20260507201302 11 155 3.2 11.3 0.00 0.10 0.00 81 1016.2
20260507200802 11 145 3.2 14.5 0.00 0.10 0.00 81 1016.1
20260507200304 11 144 3.2 14.5 0.00 0.10 0.00 80 1016.1
20260507195804 11 162 3.2 11.3 0.00 0.10 0.00 80 1016.0
20260507195306 11 131 3.2 9.7 0.00 0.10 0.00 80 1016.0
20260507194801 11 160 3.2 9.7 0.00 0.10 0.00 79 1016.1
20260507194301 11 0 3.2 9.7 0.00 0.10 0.00 79 1016.1
20260507193804 11 158 3.2 11.3 0.00 0.10 0.00 79 1016.0
20260507193618 11 181 3.2 12.9 0.00 0.13 0.00 79 1015.9
20260507193132 11 151 4.8 12.9 0.00 0.13 0.00 78 1015.8
20260507192301 11 161 4.8 12.9 0.00 0.15 0.00 78 1015.9
20260507191801 11 161 3.2 12.9 0.00 0.15 0.00 78 1015.8
20260507191300 11 199 4.8 12.9 0.00 0.15 0.00 78 1015.8
20260507190800 11 170 3.2 12.9 0.00 0.15 0.00 78 1015.7
20260507190302 11 162 4.8 12.9 0.00 0.15 0.00 78 1015.7
20260507185804 11 149 4.8 16.1 0.00 0.15 0.00 78 1015.6
20260507185625 11 164 4.8 16.1 0.00 0.15 0.00 78 1015.6
20260507184758 11 140 4.8 14.5 0.00 0.15 0.00 77 1015.6
20260507184257 11 141 4.8 14.5 0.00 0.15 0.00 77 1015.6
20260507183759 11 152 4.8 11.3 0.00 0.15 0.00 77 1015.6
20260507183259 11 157 4.8 12.9 0.00 0.15 0.00 77 1015.7
20260507182759 11 184 4.8 16.1 0.00 0.15 0.00 76 1015.6
20260507182259 12 119 4.8 16.1 0.00 0.15 0.00 76 1015.6
20260507181801 12 136 6.4 16.1 0.00 0.15 0.00 76 1015.6
20260507181259 12 145 6.4 16.1 0.00 0.18 0.00 76 1015.5
20260507180800 12 157 6.4 16.1 0.00 0.18 0.00 75 1015.4
20260507180300 12 97 6.4 16.1 0.00 0.18 0.00 75 1015.3
20260507175801 12 157 4.8 16.1 0.00 0.18 0.00 75 1015.2
20260507175257 12 160 4.8 12.9 0.00 0.18 0.00 74 1015.2
20260507174757 12 160 3.2 11.3 0.00 0.23 0.00 74 1015.2
20260507174257 12 134 3.2 11.3 0.00 0.23 0.00 74 1015.2
20260507173758 12 170 3.2 9.7 0.00 0.25 0.00 74 1015.1
20260507173257 12 80 3.2 9.7 0.00 0.25 0.00 73 1015.1
20260507172757 12 67 3.2 6.4 0.00 0.25 0.00 73 1015.1
20260507172258 12 117 3.2 11.3 0.00 0.28 0.00 73 1015.2
20260507171757 12 133 4.8 11.3 0.00 0.33 0.00 73 1015.2
20260507171258 12 153 4.8 11.3 0.00 0.36 0.00 72 1015.2
20260507170757 12 154 4.8 9.7 0.00 0.36 0.00 72 1015.2
20260507170258 12 155 4.8 12.9 0.00 0.36 0.00 72 1015.2
20260507165756 13 111 4.8 12.9 0.00 0.36 0.00 71 1015.2
20260507165256 13 161 4.8 12.9 0.00 0.36 0.00 71 1015.2
20260507164755 13 98 3.2 12.9 0.00 0.36 0.00 70 1015.2
20260507164254 13 160 4.8 12.9 0.00 0.36 0.00 71 1015.2
20260507163755 13 184 4.8 12.9 0.00 0.36 0.00 69 1015.2
20260507163255 13 186 4.8 12.9 0.00 0.36 0.00 70 1015.2
20260507162755 13 50 4.8 12.9 0.00 0.36 0.00 69 1015.2
20260507162613 13 170 4.8 12.9 0.00 0.36 0.00 68 1015.2
20260507161756 13 106 4.8 12.9 0.00 0.36 0.00 66 1015.2
20260507161255 13 161 3.2 11.3 0.00 0.36 0.00 65 1015.2
20260507160756 13 163 4.8 11.3 0.00 0.36 0.00 64 1015.2
20260507160256 13 159 4.8 12.9 0.00 0.36 0.00 64 1015.1
20260507160128 13 124 3.2 12.9 0.00 0.36 0.00 64 1015.1
20260507155640 13 172 1.6 9.7 0.00 0.36 0.00 64 1015.0
20260507154749 13 50 3.2 11.3 0.00 0.38 0.00 65 1015.0
20260507154250 13 210 4.8 12.9 0.00 0.41 0.00 64 1014.9
20260507154227 13 169 3.2 12.9 0.00 0.41 0.00 64 1014.9
20260507152747 13 153 3.2 12.9 0.00 0.41 0.00 65 1014.8
20260507152247 13 204 3.2 8.0 0.00 0.41 0.00 65 1014.9
20260507151746 13 172 3.2 9.7 0.00 0.41 0.00 64 1015.0
20260507151246 13 173 3.2 9.7 0.00 0.41 0.00 65 1015.1
20260507150747 13 138 3.2 9.7 0.00 0.41 0.00 66 1015.1
20260507150248 13 159 1.6 8.0 0.00 0.41 0.00 66 1015.1
20260507145748 13 112 3.2 9.7 0.00 0.41 0.00 66 1015.3
20260507145626 13 181 3.2 11.3 0.00 0.41 0.00 67 1015.4
20260507144748 13 168 4.8 12.9 0.00 0.41 0.00 66 1015.4
20260507144247 13 0 3.2 12.9 0.00 0.41 0.00 65 1015.5
20260507143748 13 76 4.8 12.9 0.00 0.41 0.00 65 1015.6
20260507143247 13 138 4.8 12.9 0.00 0.41 0.00 65 1015.6
20260507142746 13 174 4.8 14.5 0.00 0.41 0.00 64 1015.6
20260507142357 13 163 4.8 14.5 0.00 0.41 0.00 65 1015.6
20260507141245 13 163 6.4 16.1 0.00 0.41 0.00 63 1015.7
20260507140746 13 171 6.4 17.7 0.00 0.41 0.00 64 1015.6
20260507140245 13 191 8.0 17.7 0.00 0.41 0.00 62 1015.5
20260507135743 13 218 8.0 17.7 0.00 0.41 0.00 63 1015.4
20260507135240 13 154 6.4 17.7 0.00 0.41 0.00 64 1015.2
20260507134841 13 158 6.4 17.7 0.00 0.41 0.00 63 1015.2
20260507133740 14 70 6.4 16.1 0.00 0.41 0.00 62 1015.0
20260507133240 14 158 6.4 19.3 0.00 0.41 0.00 62 1015.0
20260507132740 14 190 6.4 19.3 0.00 0.41 0.00 62 1015.1
20260507132240 14 167 6.4 17.7 0.00 0.41 0.00 62 1014.8
20260507131740 13 187 8.0 20.9 0.00 0.41 0.00 64 1015.2
20260507131241 14 169 6.4 20.9 0.00 0.41 0.00 62 1015.3
20260507130741 14 163 6.4 19.3 0.00 0.41 0.00 62 1015.1
20260507130240 14 214 6.4 19.3 0.00 0.41 0.00 62 1015.2
20260507125740 14 176 4.8 19.3 0.00 0.41 0.00 63 1014.9
20260507125241 13 153 6.4 17.7 0.00 0.41 0.00 65 1015.1
20260507124737 14 66 8.0 17.7 0.00 0.41 0.00 63 1015.3
20260507124233 14 155 8.0 17.7 0.00 0.41 0.00 62 1015.0
20260507123734 14 162 6.4 17.7 0.00 0.41 0.00 63 1014.4
20260507123233 14 164 6.4 20.9 0.00 0.41 0.00 62 1014.8
20260507122734 14 199 8.0 20.9 0.00 0.41 0.00 62 1014.5
20260507122233 14 160 6.4 17.7 0.00 0.41 0.00 64 1013.9
20260507121734 14 109 4.8 17.7 0.00 0.43 0.00 65 1014.2
20260507121234 14 164 3.2 16.1 0.00 0.46 0.00 59 1014.5
20260507120734 13 209 6.4 16.1 0.00 0.48 0.00 62 1014.4
20260507120555 13 37 8.0 17.7 0.00 0.48 0.00 62 1014.7
20260507115734 13 194 6.4 17.7 0.00 0.48 0.00 64 1015.2
20260507115234 13 164 6.4 17.7 0.00 0.48 0.00 65 1015.6
20260507114734 13 288 4.8 17.7 0.00 0.53 0.00 64 1015.5
20260507114232 13 94 4.8 17.7 0.00 0.56 0.00 65 1014.2
20260507113846 13 163 3.2 14.5 0.00 0.58 0.00 64 1014.3
20260507112734 13 328 3.2 12.9 0.00 0.76 0.00 68 1014.9
20260507112235 13 79 4.8 16.1 0.00 0.76 0.00 67 1015.5
20260507111735 13 49 6.4 16.1 0.00 0.76 0.00 66 1015.4
20260507111232 14 203 6.4 16.1 0.00 0.76 0.00 63 1013.9
20260507110734 13 197 4.8 16.1 0.00 0.79 0.00 67 1013.8
20260507110234 13 181 3.2 11.3 0.00 0.79 0.00 66 1014.9
20260507105734 12 186 3.2 11.3 0.00 0.79 0.00 69 1015.2
20260507105236 12 82 3.2 11.3 0.00 0.79 0.00 70 1015.5
20260507105059 12 177 3.2 14.5 0.00 0.79 0.00 70 1015.5
20260507104547 13 125 6.4 17.7 0.00 0.81 0.00 70 1015.9
20260507103731 13 53 6.4 17.7 0.00 0.81 0.00 68 1014.4
20260507103231 13 131 3.2 14.5 0.00 0.84 0.00 69 1014.2
20260507103044 13 245 3.2 14.5 0.00 0.86 0.00 69 1014.1
20260507102231 12 250 3.2 14.5 0.00 0.86 0.00 71 1014.5
20260507101731 12 266 4.8 14.5 0.00 0.86 0.00 70 1014.7
20260507101230 12 152 4.8 14.5 0.00 0.86 0.00 72 1016.6
20260507100730 12 124 4.8 14.5 0.00 0.86 0.00 72 1014.7
20260507100230 12 91 4.8 19.3 0.00 0.86 0.00 71 1014.4
20260507095731 12 71 4.8 19.3 0.00 0.86 0.00 70 1014.5
20260507095228 12 160 3.2 12.9 0.00 0.86 0.00 70 1014.3
20260507094726 12 141 3.2 14.5 0.00 0.86 0.00 72 1015.2
20260507094226 12 170 4.8 14.5 0.00 0.86 0.00 68 1015.9
20260507093722 12 213 4.8 14.5 0.00 0.86 0.00 71 1013.8
20260507093222 12 51 3.2 9.7 0.00 0.86 0.00 69 1014.5
20260507092723 11 170 1.6 9.7 0.00 0.86 0.00 73 1014.3
20260507092222 11 165 1.6 8.0 0.00 0.86 0.00 74 1016.4
20260507091722 11 99 1.6 8.0 0.00 0.86 0.00 75 1016.6
20260507091222 12 71 3.2 9.7 0.00 0.86 0.00 74 1016.0
20260507090724 12 182 4.8 12.9 0.00 0.86 0.00 74 1015.1
20260507090319 12 163 4.8 14.5 0.00 0.86 0.00 75 1014.6
20260507085223 12 88 3.2 14.5 0.00 0.89 0.00 73 1014.4
20260507084722 12 59 3.2 9.7 0.00 0.91 0.00 73 1014.4
20260507084221 11 118 3.2 9.7 0.00 0.91 0.00 73 1014.5
20260507083721 11 164 3.2 12.9 0.00 0.91 0.00 74 1015.5
20260507083220 11 57 3.2 12.9 0.00 0.94 0.00 77 1014.7
20260507082721 11 191 3.2 11.3 0.00 0.94 0.00 76 1014.8
20260507082217 11 164 3.2 12.9 0.00 0.94 0.00 77 1014.7
20260507081716 11 156 4.8 12.9 0.00 0.94 0.00 79 1014.9
20260507081217 11 151 4.8 12.9 0.00 0.97 0.00 78 1014.9
20260507080717 11 150 4.8 12.9 0.00 0.97 0.00 80 1015.0
20260507080217 11 94 3.2 11.3 0.00 0.97 0.00 80 1015.2
20260507075718 10 190 3.2 12.9 0.00 0.97 0.00 82 1014.9
20260507075215 10 147 3.2 12.9 0.00 0.97 0.00 80 1014.9
20260507074715 10 59 4.8 12.9 0.00 0.97 0.00 82 1014.9
20260507074212 10 199 3.2 12.9 0.00 0.97 0.00 82 1015.0
20260507073712 10 0 3.2 12.9 0.00 0.97 0.00 84 1015.0
20260507073210 10 184 4.8 12.9 0.00 0.97 0.00 86 1015.3
20260507072710 10 156 4.8 11.3 0.00 0.97 0.00 87 1014.9
20260507072209 10 254 3.2 11.3 0.00 0.97 0.00 88 1014.9
20260507071706 10 198 3.2 9.7 0.00 0.97 0.00 89 1014.8
20260507071526 9 196 3.2 9.7 0.00 0.97 0.00 91 1014.9
20260507070706 9 161 3.2 11.3 0.00 0.97 0.00 93 1015.0
20260507070206 8 153 3.2 11.3 0.00 0.97 0.00 95 1015.1
20260507065709 8 161 3.2 9.7 0.00 0.97 0.00 96 1015.1
20260507065209 8 182 1.6 9.7 0.00 0.97 0.00 98 1015.0
20260507064706 8 182 1.6 6.4 0.00 0.97 0.00 99 1015.2
20260507064207 7 0 1.6 4.8 0.00 0.97 0.00 99 1015.0
20260507063707 7 66 1.6 4.8 0.00 0.97 0.00 100 1015.3
20260507063526 7 0 0.0 4.8 0.00 0.97 0.00 100 1015.4
20260507062710 7 131 0.0 4.8 0.00 0.97 0.00 100 1015.6
20260507062206 7 147 0.0 4.8 0.00 0.97 0.00 100 1015.7
20260507061706 7 0 0.0 3.2 0.00 0.97 0.00 99 1015.9
20260507061207 7 147 0.0 3.2 0.00 0.97 0.00 99 1016.0
20260507060706 7 0 0.0 1.6 0.00 0.97 0.00 99 1016.1
20260507060206 7 0 0.0 1.6 0.00 0.97 0.00 99 1016.3
20260507055704 6 0 0.0 1.6 0.00 0.97 0.00 99 1016.2
20260507055204 6 0 0.0 4.8 0.00 0.97 0.00 99 1016.0
20260507054702 6 0 0.0 4.8 0.00 0.97 0.00 99 1015.9
20260507054204 6 123 0.0 4.8 0.00 0.97 0.00 99 1015.9
20260507053704 6 0 0.0 4.8 0.00 0.97 0.00 99 1015.8
20260507053202 6 126 0.0 4.8 0.00 0.97 0.00 99 1015.7
20260507052759 6 0 0.0 3.2 0.00 0.97 0.00 99 1015.7
20260507051704 6 79 0.0 3.2 0.00 0.97 0.00 99 1015.6
20260507051519 6 0 0.0 3.2 0.00 0.97 0.00 99 1015.6
20260507050703 6 0 0.0 3.2 0.00 0.97 0.00 99 1015.6
20260507050535 6 71 0.0 3.2 0.00 0.97 0.00 99 1015.6
20260507045701 6 0 0.0 3.2 0.00 0.97 0.00 100 1015.6
20260507045202 6 0 0.0 3.2 0.00 0.97 0.00 100 1015.6
20260507044702 6 0 0.0 3.2 0.00 0.97 0.00 100 1015.6
20260507044202 6 0 0.0 1.6 0.00 0.97 0.00 100 1015.6
20260507043702 6 0 0.0 1.6 0.00 0.97 0.00 100 1015.6
20260507043201 6 0 0.0 1.6 0.00 0.97 0.00 100 1015.6
20260507042701 6 0 0.0 1.6 0.00 0.97 0.00 100 1015.6
20260507042201 6 0 0.0 4.8 0.00 0.97 0.00 100 1015.6
20260507041703 6 0 0.0 4.8 0.00 0.97 0.00 100 1015.5
20260507041200 6 68 0.0 4.8 0.00 0.97 0.00 100 1015.5
20260507040701 6 57 1.6 3.2 0.00 0.97 0.00 100 1015.5
20260507040201 6 48 0.0 3.2 0.00 0.97 0.00 100 1015.4
20260507035701 6 0 0.0 1.6 0.00 0.97 0.00 99 1015.7
20260507035201 6 0 0.0 1.6 0.00 0.97 0.00 99 1015.8
20260507034703 6 0 0.0 1.6 0.00 0.97 0.00 99 1015.9
20260507034201 6 0 0.0 1.6 0.00 0.97 0.00 99 1015.8
20260507033701 6 0 0.0 0.0 0.00 0.97 0.00 99 1015.8
20260507033201 6 0 0.0 0.0 0.00 0.97 0.00 99 1015.9
20260507033015 6 0 0.0 1.6 0.00 0.97 0.00 99 1015.9
20260507032203 6 0 0.0 1.6 0.00 0.97 0.00 99 1015.6
20260507031702 6 0 0.0 0.0 0.00 0.97 0.00 99 1015.7
20260507031157 7 0 0.0 4.8 0.00 0.97 0.00 99 1015.7
20260507030657 7 0 0.0 4.8 0.00 0.97 0.00 99 1015.6
20260507030159 7 0 0.0 3.2 0.00 0.97 0.00 99 1015.6
20260507025701 7 157 0.0 3.2 0.00 0.97 0.00 99 1015.5
20260507025159 7 0 0.0 3.2 0.00 0.97 0.00 99 1015.6
20260507024700 7 172 0.0 3.2 0.00 0.97 0.00 99 1015.6
20260507024201 7 0 0.0 3.2 0.00 0.97 0.00 99 1015.4